Location: Bidart
(43.4376°N, 1.5913°W)
Time: 15:42:16
(UTC+00:00)

Cosmos 1605 Rocket - Pass Details

Date: 19 May 2025
Orbit: 944 x 1005 km, 82.9° (Epoch: 12 June)

Event Time Altitude Azimuth Distance (km) Brightness Sun altitude
Rises 23:25:22 0° 352° (N) 3,722 8.4 -26.0°
Reaches altitude 10° 23:27:56 10° 354° (N) 2,762 7.4 -26.1°
Maximum altitude 23:34:17 83° 82° (E) 992 3.9 -26.2°
Enters shadow 23:35:17 65° 157° (SSE) 1,071 3.9 -26.3°
